Terminal Aerodrome Forecast
Issued by NWS

Home | Current Version | Previous Version | Text Only | Print | Product List | Glossary On
Versions: 1 2 3 4 5 6 7 8 9 10 11 12 13 14 15 16 17 18 19 20 21 22 23 24 25 26 27 28 29 30 31 32 33 34 35 36 37 38 39 40 41 42 43 44 45 46 47 48 49 50
000
FTUS44 KHGX 260524
TAFCXO
TAF
KCXO 260524Z 2606/2706 23006KT P6SM SKC
     FM260800 00000KT 4SM BR FEW003
      TEMPO 2609/2613 1SM BR VV003
     FM261400 18008KT P6SM SCT012 SCT120
     FM261800 16007KT P6SM FEW030 BKN150=

USA.gov is the U.S. government's official web portal to all federal, state and local government web resources and services.